Other Public Products
Issued by NWS Grand Forks, ND

Home | Current Version | Previous Version | Text Only | Print | Product List | Glossary Off
Versions: 1 2 3 4 5 6 7 8 9 10 11 12 13 14 15 16 17 18 19 20 21 22 23 24 25 26 27 28 29 30 31 32 33 34 35 36 37 38 39 40 41 42 43 44 45 46 47 48 49 50

000
FPUS83 KFGF 012310
OPUFGF
PRAIRIE TO PINES WEATHER ROUNDUP
NATIONAL WEATHER SERVICE EASTERN NORTH DAKOTA/GRAND FORKS ND
600 PM CDT WED JUL 01 2015

 **SATELLITE DATA USED TO AUGMENT SKY COVER AT AUTOMATED STATIONS**
 *****  WEATHER ACROSS EASTERN NORTH DAKOTA  *****

CITY           SKY/WX    TMP DP  RH WIND       PRES   REMARKS
GRAND FORKS    MOSUNNY   77  61  57 SW7       29.93S
GRAND FORKS AF SUNNY     78  60  53 S6        29.94F
GRAND CITY NWS   N/A     79 N/A N/A SW6         N/A
BUXTON         NOT AVBL
DEVILS LAKE    SUNNY     75  57  53 E7        29.93F
FARGO          SUNNY     74  59  59 S12       29.95S
WAHPETON ARPT  CLEAR     72  54  53 S7        29.97F
$$

 *****  WEATHER ACROSS CENTRAL AND WESTERN NORTH DAKOTA  *****

CITY           SKY/WX    TMP DP  RH WIND       PRES   REMARKS
JAMESTOWN      PTSUNNY   74  63  68 SE9       29.94F
BISMARCK       PTSUNNY   77  63  61 CALM      29.94S
MINOT          PTSUNNY   73  62  68 N3        29.94F
MINOT AFB      PTSUNNY   75  69  79 VRB3      29.93F
GARRISON         N/A     75  63  66 NW5       29.95S
WILLISTON      MOSUNNY   77  57  50 N6        29.97S HAZE
DICKINSON      SUNNY     75  59  57 CALM      29.97F
HETTINGER      MOSUNNY   74  61  63 VRB5      29.99S
$$

 *****  OTHER OBSERVATIONS NORTHEAST NORTH DAKOTA  *****

CITY           SKY/WX    TMP DP  RH WIND       PRES   REMARKS
WALHALLA       FAIR      77  61  57 MISG      29.93S
LANGDON        FAIR      75  61  60 S7        29.96F
CAVALIER       FAIR      77  57  50 SW5       29.93S
GRAFTON        FAIR      79  57  47 S6        29.93F
CANDO          FAIR      73  61  64 SE7       29.95F
FORT TOTTEN      N/A     79  60  51 S2        29.95S
ROLLA            N/A     72  63  73 S6        29.96F
RUGBY          NOT AVBL
 ***** THE ABOVE OBSERVATIONS ARE NON NWS ARE NOT QUALITY
        CONTROLLED AND MAY MIS-REPORT RAIN FOR SNOW...
$$

 *****  OTHER OBSERVATIONS SOUTHEAST NORTH DAKOTA *****

CITY           SKY/WX    TMP DP  RH WIND       PRES   REMARKS
COOPERSTOWN    NOT AVBL
VALLEY CITY    MOCLDY    73  64  73 S9        29.96S
OAKES            N/A     73  66  78 SE8       29.95S
GWINNER        NOT AVBL
SHEYENNE NWR     N/A     75  59  57 SE7       29.95S
BUFFALO        NOT AVBL
WYNDMERE       NOT AVBL
 ***** THE ABOVE OBSERVATIONS ARE NON NWS ARE NOT QUALITY
       CONTROLLED AND MAY MIS-REPORT RAIN FOR SNOW...
$$

  *****  WEATHER ACROSS NORTHERN MINNESOTA  *****

CITY           SKY/WX    TMP DP  RH WIND       PRES   REMARKS
FLAG ISLAND    MOSUNNY   72  61  68 S8        29.92F
WARROAD        MOSUNNY   77  61  57 W5        29.94S
ROSEAU         MOSUNNY   77  61  57 W3        29.94F
HALLOCK        NOT AVBL
THF RVR FALLS  SUNNY     77  57  50 W7        29.96R
HALSTAD        NOT AVBL
FOSSTON        MOSUNNY   77  61  57 W12       29.97R
BAUDETTE       SUNNY     78  51  38 CALM      29.94S
WASKISH        SUNNY     77  52  41 SW5       29.95S
CROOKSTON      MOSUNNY   77  61  57 SW9       29.95S
$$
  *****  WEATHER ACROSS CENTRAL AND WEST MINNESOTA  *****

CITY           SKY/WX    TMP DP  RH WIND       PRES   REMARKS
BEMIDJI        PTSUNNY   74  59  58 N3        29.96S
PARK RAPIDS    CLOUDY    75  57  53 SW9       29.97S
WADENA           N/A     73  52  46 SW5       29.98F
DETROIT LAKES  SUNNY     73  55  53 SW8       29.99S
MOORHEAD       SUNNY     73  61  64 S8        29.97S
FERGUS FALLS   SUNNY     73  57  56 S7        29.97S
ELBOW LAKE     FAIR      72  54  53 S8        29.98F
MORRIS MN      SUNNY     73  52  46 SE9       29.98S
STAPLES        MOSUNNY   73  54  49 SW7       29.98F
WHEATON        SUNNY     70  54  56 SE13      29.99S
$$
  *****  WEATHER ELSEWHERE ACROSS MINNESOTA  *****

CITY           SKY/WX    TMP DP  RH WIND       PRES   REMARKS
DULUTH         MOSUNNY   70  55  59 SE9       29.99S
INTRNTL FALLS  SUNNY     78  53  41 W3        29.94F
ELY            SUNNY     72  50  46 CALM      29.97S
CLOQUET        MOSUNNY   72  54  53 CALM      29.98S
BRAINERD       MOSUNNY   74  53  48 S7        29.98F
HIBBING        MOSUNNY   74  55  51 SE5       29.97S
ALEXANDRIA     SUNNY     72  54  53 S9        30.01S
SAINT CLOUD    SUNNY     73  50  44 VRB5      29.99F
MINNEAPOLIS    MOSUNNY   72  52  49 S5        29.99S
$$

  *****  WEATHER ACROSS SOUTH DAKOTA  *****

CITY           SKY/WX    TMP DP  RH WIND       PRES   REMARKS
SIOUX FALLS    CLOUDY    73  63  70 E10       29.95R
BROOKINGS      CLOUDY    72  57  60 E8        29.98S
WATERTOWN      CLOUDY    71  58  63 SE12      29.96F
HURON          CLOUDY    78  66  66 E8        29.90S
SISSETON         N/A     73  59  61 S9        29.95S
ABERDEEN       PTSUNNY   75  66  73 SE7       29.92F
MITCHELL       MOSUNNY   77  68  73 E9        29.91F
PIERRE         MOSUNNY   80  66  62 VRB6      29.89S
MOBRIDGE       PTSUNNY   79  64  60 VRB5      29.91S
RAPID CITY     SUNNY     82  66  58 N18       29.97S
$$

  *****  SOME WEATHER IN NEARBY STATES *****

CITY           SKY/WX    TMP DP  RH WIND       PRES   REMARKS
GLASGOW MT     PTSUNNY   79  58  48 W6        29.97R HAZE
GREAT FALLS MT MOSUNNY   81  53  37 NE17G24   30.07S
CHEYENNE WY    PTSUNNY   73  55  53 SW17G24   30.18S
SCOTTSBLUFF NE SUNNY     90  52  27 E8        29.99S
OMAHA NE       MOSUNNY   83  69  62 E14       29.86S
DES MOINES IA  CLOUDY    75  62  64 NE12      29.91S
DAVENPORT IA   PTSUNNY   71  57  61 NE10      29.94S
CHICAGO IL     PTSUNNY   61  50  67 NE9       29.98R
EAU CLAIRE WI  SUNNY     73  50  44 N5        29.98S
LA CROSSE WI   MOSUNNY   71  51  49 W5        29.97F
$$

  *****  SOME NATIONAL WEATHER *****

CITY           SKY/WX    TMP DP  RH WIND       PRES   REMARKS
LA GUARDIA NY  MOSUNNY   83  57  41 W16       29.76S
RALEIGH NC     CLOUDY    83  68  60 SW8       29.92S
ATLANTA GA     TSTM      72  70  94 W8        30.08R FOG
NEW ORLEANS LA LGT RAIN  81  74  79 N8        30.08S
OKLAHOMA CITY  MOSUNNY   93  68  43 S23       29.86F HX  97
ALBUQUERQUE NM MOSUNNY   93  47  20 W5        30.04F
SALT LAKE CITY PTSUNNY   97  49  19 N8G18     30.01F HX  94
LOS ANGELES CA PTSUNNY   73  63  70 W12       29.90F
BOISE ID       SUNNY    102  43  13 NW12G22   29.93F HX  97
SEATTLE WA     SUNNY     88  55  32 N12       29.98F
$$

*** WEATHER ACROSS MANITOBA...SASKATCHEWAN AND ONTARIO ***
                ***ONTARIO***

CITY           SKY/WX    TMP DP  RH WIND       PRES   REMARKS
GERALDTON      MOSUNNY   64  46  52 W10G17    29.95R
THUNDER BAY    PTSUNNY   66  48  52 S8        29.98F
SIOUX LOOKOUT  CLOUDY    70  59  68 S3        29.94F
TORONTO        MOSUNNY   70  55  60 W16       29.84R
BIG TROUT LK   SUNNY     73  45  35 W6        29.89F
PICKLE LAKE    PTSUNNY   63  54  72 SE13      29.91R
DRYDEN         PTSUNNY   72  59  64 VRB2      29.94S
KENORA         PTSUNNY   73  57  56 S9        29.94F
$$
                *** MANITOBA***

CITY           SKY/WX    TMP DP  RH WIND       PRES   REMARKS
BRANDON        CLOUDY    73  64  73 W8        29.92F
DAUPHIN        SUNNY     77  61  57 W9        29.89F
ISLAND LAKE    MOSUNNY   77  52  41 SE6       29.88S
PILOT MOUND      N/A     73  63  68 SW3         N/A
THE PAS        CLOUDY    73  59  60 SE6       29.89F SMOKE
THOMPSON       PTSUNNY   77  45  31 VRB2      29.88S
WINNIPEG       CLOUDY    75  61  60 SW8       29.92F
LYNN LAKE      CLOUDY    75  50  41 CALM      29.89S
CHURCHILL      PTSUNNY   73  45  35 E10       29.83F
GILLAM         PTSUNNY   75  45  33 CALM      29.88F
$$
                ***SASKATCHEWAN***

CITY           SKY/WX    TMP DP  RH WIND       PRES   REMARKS
ESTEVAN        CLOUDY    73  64  73 W6        29.96S SMOKE
KINDERSLEY     TSTM      66  63  88 W14       29.97S
LLOYDMINSTER   CLOUDY    70  61  73 NW9       29.99R SMOKE
PRINCE ALBERT  NOT AVBL
REGINA         CLOUDY    73  63  68 NW7       29.95F SMOKE



USA.gov is the U.S. government's official web portal to all federal, state and local government web resources and services.